Location: *
(43.7000°S, 168.7000°W)
Time: 14:32:30
(UTC+00:00)

Cosmos 1937 Rocket - Pass Details

Date: 07 July 2020
Orbit: 746 x 781 km, 74.0° (Epoch: 03 August)

Event Time Altitude Azimuth Distance (km) Brightness Sun altitude
Exits shadow 17:53:19 - 201° (SSW) 3,152 6.3 -9.6°
Reaches altitude 10° 17:55:29 10° 201° (SSW) 2,298 5.6 -9.2°
Maximum altitude 18:00:43 88° 288° (WNW) 763 3.5 -8.4°
Drops below altitude 10° 18:05:53 10° 18° (NNE) 2,274 6.6 -7.5°
Sets 18:08:13 0° 18° (NNE) 3,194 7.4 -7.1°
